Flag for Anguilla Weather past 2 weeks in The Valley, Anguilla

Now
84 °F

Passing clouds.


Feels Like: 92 °F
Forecast: 83 / 89 °F
Wind: 12 mph from East

Location: Juliana Airport - Saint Maarten

Current Time: Sep 20, 2014 at 11:13:29 PM

Latest Report: Sep 20, 2014 at 11:00 PM


Visibility: N/A

Pressure: 30.01 "Hg

Humidity: 74%

Dew point: 75 °F

Location of The ValleyLocation

Historic Weather in The Valley — Graph

°F

The Valley temperature yesterday

Maximum temperature yesterday: 88 °F (at 10:00 AM)
Minimum temperature yesterday: 82 °F (at 2:00 AM)
Average temperature yesterday: 85 °F

Past Weeks' High & Low Weather Summary

 TemperatureHumidityPressure
High90 °F (Sep 12, 3:00 PM)84% (Sep 7, 9:00 PM)30.07 "Hg (Sep 7, 9:00 PM)
Low81 °F (Sep 6, 4:00 PM)52% (Sep 17, 1:00 PM)29.89 "Hg (Sep 17, 4:00 PM)
Average84 °F72%29.98 "Hg
* Reported Sep 5 10:00 PM — Sep 20 10:00 PM, The Valley, Weather by CustomWeather, © 2014

Note: Actual official high and low records may vary slightly from our data, if they occured in-between our weather recording intervals... More about our weather records

Advertising

The Valley weather history for previous 24 hours

 ConditionsComfort  
Time TempWeatherWind HumidityBarometerVisibility
10:00 PM
Sep 20
84 °FPassing clouds.12 mph74%30.04 "HgN/A
9:00 PM84 °FPassing clouds.14 mph74%30.01 "HgN/A
8:00 PM84 °FPassing clouds.15 mph70%29.98 "HgN/A
7:00 PM84 °FPassing clouds.13 mph70%29.98 "HgN/A
6:00 PM84 °FScattered clouds.13 mph74%29.95 "HgN/A
5:00 PM86 °FPassing clouds.15 mph70%29.95 "HgN/A
4:00 PM88 °FWarm.14 mph62%29.95 "HgN/A
3:00 PM88 °FPassing clouds.12 mph66%29.92 "HgN/A
2:00 PM88 °FWarm.12 mph66%29.95 "HgN/A
9:00 AM86 °FPartly sunny.10 mph70%30.01 "HgN/A
8:00 AM84 °FScattered clouds.10 mph74%29.98 "HgN/A
7:00 AM84 °FPassing clouds.12 mph70%29.98 "HgN/A
6:00 AM82 °FPassing clouds.10 mph79%29.95 "HgN/A
5:00 AM82 °FPassing clouds.12 mph79%29.92 "HgN/A
4:00 AM82 °FPassing clouds.10 mph79%29.92 "HgN/A
3:00 AM82 °FPassing clouds.10 mph74%29.92 "HgN/A
1:00 AM82 °FPassing clouds.9 mph79%29.95 "HgN/A
12:00 AM82 °FPassing clouds.7 mph79%29.98 "HgN/A
11:00 PM
Sep 19
82 °FPassing clouds.8 mph79%29.98 "HgN/A
Weather by CustomWeather, © 2014

See weather overviewHow to use our weather pages